South Bend, IN

5:49 AM EDT on September 29, 2016 (GMT -0400)
South Bend Regional

Weather History for KSBN - April, 2013

Change the Weather History Date:

Sunday, April 7, 2013

  Actual Average Record
Temperature  
Mean Temperature 53 °F 46 °F  
Max Temperature 63 °F 56 °F 80 °F (1991)
Min Temperature 42 °F 36 °F 13 °F (1982)
Degree Days  
Heating Degree Days 12 19  
Month to date heating degree days 178 143  
Since 1 July heating degree days 5589 5687  
Cooling Degree Days 0 0  
Month to date cooling degree days 0 0  
Year to date cooling degree days 0 1  
Moisture  
Dew Point 39 °F    
Average Humidity 65    
Maximum Humidity 83    
Minimum Humidity 47    
Precipitation  
Precipitation 0.01 in 0.10 in 0.84 in (1951)
Month to date precipitation 0.02 0.69  
Year to date precipitation 8.77 7.35  
Snow  
Snow 0.00 in 0.00 in 5.10 in (1957)
Month to date snowfall T 0.6  
Since 1 July snowfall 59.9 65.8  
Snow Depth 0.00 in    
Sea Level Pressure  
Sea Level Pressure 29.87 in    
Wind  
Wind Speed 12 mph (NW)    
Max Wind Speed 33 mph    
Max Gust Speed 44 mph    
Visibility 10 miles    
Events Rain    
T = Trace of Precipitation, MM = Missing Value Source: NWS Daily Summary

Daily Weather History Graph

Daily Weather History Graph

Search for Another Location

Airport or City:

Trip Planner

Search our weather history database for the weather conditions in past years. The results will help you decide how hot, cold, wet, or windy it might be!

Date:

Astronomy

Apr. 07, 2013 Rise Set
Actual Time 7:17 AM EDT 8:17 PM EDT
Civil Twilight 6:49 AM EDT 8:45 PM EDT
Nautical Twilight 6:15 AM EDT 9:19 PM EDT
Astronomical Twilight 5:40 AM EDT 9:55 PM EDT
Moon 5:37 AM EDT (4/7) 5:47 PM EDT (4/7)
Length of Visible Light 13h 56m
Length of Day
12h 59m
Waning Crescent, 8% of the Moon is Illuminated
Apr 7
Waning Crescent
Apr 10
New
Apr 18
First Quarter
Apr 25
Full
May 2
Last Quarter

Hourly Weather History & Observations

Time (EDT) Temp. Windchill Dew Point Humidity Pressure Visibility Wind Dir Wind Speed Gust Speed Precip Events Conditions
12:54 AM 61.0 °F - 39.9 °F 46% 29.67 in 10.0 mi SSW 19.6 mph - 0.00 in   Overcast
1:54 AM 60.1 °F - 43.0 °F 53% 29.70 in 10.0 mi SW 29.9 mph 40.3 mph 0.00 in Rain Light Rain
2:54 AM 54.0 °F - 46.9 °F 77% 29.67 in 10.0 mi SSW 15.0 mph 25.3 mph 0.01 in   Overcast
3:54 AM 55.9 °F - 44.1 °F 64% 29.66 in 10.0 mi SW 17.3 mph 26.5 mph N/A   Scattered Clouds
4:54 AM 54.0 °F - 45.0 °F 72% 29.68 in 10.0 mi WSW 16.1 mph 25.3 mph N/A   Partly Cloudy
5:15 AM 53.6 °F - 44.6 °F 72% 29.70 in 10.0 mi WSW 17.3 mph - N/A   Mostly Cloudy
5:54 AM 52.0 °F - 46.0 °F 80% 29.73 in 10.0 mi West 15.0 mph 24.2 mph N/A   Overcast
6:54 AM 50.0 °F - 43.0 °F 77% 29.77 in 8.0 mi West 15.0 mph - N/A   Overcast
7:54 AM 48.9 °F - 42.1 °F 77% 29.81 in 8.0 mi West 16.1 mph - N/A   Overcast
8:49 AM 48.2 °F - 41.0 °F 76% 29.85 in 9.0 mi West 13.8 mph - N/A   Overcast
8:54 AM 48.9 °F - 41.0 °F 74% 29.85 in 9.0 mi West 12.7 mph 21.9 mph N/A   Overcast
9:29 AM 48.2 °F - 39.2 °F 71% 29.86 in 10.0 mi NW 16.1 mph 21.9 mph N/A   Overcast
9:54 AM 46.9 °F - 39.0 °F 74% 29.88 in 10.0 mi WNW 16.1 mph - N/A   Overcast
10:38 AM 48.2 °F - 37.4 °F 66% 29.89 in 10.0 mi NW 16.1 mph - N/A   Mostly Cloudy
10:54 AM 48.0 °F - 37.9 °F 68% 29.90 in 10.0 mi NW 12.7 mph - N/A   Mostly Cloudy
11:01 AM 48.2 °F - 37.4 °F 66% 29.90 in 10.0 mi WNW 12.7 mph - N/A   Mostly Cloudy
11:54 AM 50.0 °F - 37.0 °F 61% 29.93 in 10.0 mi NW 18.4 mph 24.2 mph N/A   Overcast
12:18 PM 51.8 °F - 37.4 °F 58% 29.94 in 10.0 mi NW 17.3 mph 23.0 mph N/A   Scattered Clouds
12:54 PM 52.0 °F - 36.0 °F 54% 29.95 in 10.0 mi NNW 11.5 mph 20.7 mph N/A   Clear
1:54 PM 52.0 °F - 36.0 °F 54% 29.96 in 10.0 mi NNW 16.1 mph 20.7 mph N/A   Clear
2:54 PM 52.0 °F - 35.1 °F 53% 29.97 in 10.0 mi NW 8.1 mph 17.3 mph N/A   Clear
3:54 PM 55.0 °F - 36.0 °F 49% 29.97 in 10.0 mi NNW 8.1 mph - N/A   Clear
4:54 PM 55.0 °F - 36.0 °F 49% 29.97 in 10.0 mi NNW 10.4 mph - N/A   Clear
5:54 PM 55.0 °F - 36.0 °F 49% 29.97 in 10.0 mi NW 5.8 mph - N/A   Clear
6:54 PM 53.1 °F - 36.0 °F 52% 29.98 in 10.0 mi North 6.9 mph - N/A   Clear
7:54 PM 51.1 °F - 35.1 °F 54% 29.99 in 10.0 mi NNE 4.6 mph - N/A   Clear
8:54 PM 48.0 °F - 35.1 °F 61% 29.98 in 10.0 mi NE 3.5 mph - N/A   Clear
9:54 PM 46.9 °F - 34.0 °F 61% 29.99 in 10.0 mi NE 4.6 mph - N/A   Clear
10:54 PM 44.1 °F 42.5 °F 34.0 °F 68% 30.00 in 10.0 mi ENE 3.5 mph - N/A   Clear
11:54 PM 43.0 °F 41.3 °F 33.1 °F 68% 29.99 in 10.0 mi ENE 3.5 mph - N/A   Clear